TimePDT,TemperatureF,Dew PointF,Humidity,Sea Level PressureIn,VisibilityMPH,Wind Direction,Wind SpeedMPH,Gust SpeedMPH,PrecipitationIn,Events,Conditions,WindDirDegrees,DateUTC
12:56 AM,68.0,52.0,56,30.09,10.0,West,5.8,-,N/A,,Clear,270,2013-06-29 07:56:00
1:56 AM,66.9,53.1,61,30.08,10.0,Calm,Calm,-,N/A,,Partly Cloudy,0,2013-06-29 08:56:00
2:56 AM,64.0,55.9,75,30.09,10.0,Calm,Calm,-,N/A,,Clear,0,2013-06-29 09:56:00
3:56 AM,64.0,55.9,75,30.09,10.0,Calm,Calm,-,N/A,,Clear,0,2013-06-29 10:56:00
4:56 AM,63.0,55.9,78,30.09,10.0,Calm,Calm,-,N/A,,Clear,0,2013-06-29 11:56:00
5:56 AM,62.1,55.9,80,30.10,10.0,SE,3.5,-,N/A,,Clear,140,2013-06-29 12:56:00
6:56 AM,64.0,57.9,80,30.10,10.0,SSE,3.5,-,N/A,,Clear,150,2013-06-29 13:56:00
7:56 AM,68.0,57.0,68,30.10,10.0,SSE,5.8,-,N/A,,Clear,150,2013-06-29 14:56:00
8:56 AM,70.0,57.0,63,30.10,10.0,SE,4.6,-,N/A,,Clear,140,2013-06-29 15:56:00
9:56 AM,75.0,57.0,53,30.09,10.0,Calm,Calm,-,N/A,,Clear,0,2013-06-29 16:56:00
10:56 AM,78.1,57.0,48,30.09,10.0,Calm,Calm,-,N/A,,Clear,0,2013-06-29 17:56:00
11:56 AM,81.0,57.9,45,30.07,10.0,Calm,Calm,-,N/A,,Clear,0,2013-06-29 18:56:00
12:56 PM,84.0,57.9,41,30.06,10.0,ENE,3.5,-,N/A,,Clear,60,2013-06-29 19:56:00
1:56 PM,84.0,57.9,41,30.04,10.0,Calm,Calm,-,N/A,,Clear,0,2013-06-29 20:56:00
2:56 PM,87.1,57.0,36,30.02,10.0,Variable,4.6,-,N/A,,Clear,0,2013-06-29 21:56:00
3:56 PM,89.1,55.9,32,30.01,10.0,Variable,5.8,-,N/A,,Clear,0,2013-06-29 22:56:00
4:56 PM,89.1,57.9,35,29.99,10.0,NE,8.1,-,N/A,,Clear,50,2013-06-29 23:56:00
5:56 PM,89.1,59.0,36,29.97,10.0,NE,8.1,-,N/A,,Clear,40,2013-06-30 00:56:00
6:56 PM,88.0,60.1,39,29.96,10.0,North,5.8,-,N/A,,Clear,360,2013-06-30 01:56:00
7:56 PM,84.9,61.0,44,29.95,10.0,ENE,6.9,-,N/A,,Clear,60,2013-06-30 02:56:00
8:56 PM,82.0,61.0,49,29.95,10.0,Calm,Calm,-,N/A,,Clear,0,2013-06-30 03:56:00
9:56 PM,75.9,61.0,60,29.96,10.0,NNW,4.6,-,N/A,,Clear,330,2013-06-30 04:56:00
10:56 PM,73.9,60.1,62,29.96,10.0,NNW,5.8,-,N/A,,Clear,330,2013-06-30 05:56:00
11:56 PM,70.0,62.1,76,29.96,10.0,Calm,Calm,-,N/A,,Clear,0,2013-06-30 06:56:00